This is the latest recevied weather packets stored in our database for station/object SV1JCZ-13. If no packets are shown the sender has not sent any weather packets the latest 10 day(s).
| Time | Temp. | Humidity | Pressure | Rain* | Wind** | Luminosity | Snow |
|---|---|---|---|---|---|---|---|
| 1777472478 | 26.11° C | 38% | 0 hPa | 0 mm | - | - | - |
| 1777472118 | 26.11° C | 37% | 0 hPa | 0 mm | - | - | - |
| 1777471758 | 26.11° C | 39% | 0 hPa | 0 mm | - | - | - |
| 1777471398 | 25.56° C | 39% | 0 hPa | 0 mm | - | - | - |
| 1777471038 | 25.56° C | 38% | 0 hPa | 0 mm | - | - | - |
| 1777470678 | 25° C | 40% | 0 hPa | 0 mm | - | - | - |
| 1777470318 | 24.44° C | 38% | 0 hPa | 0 mm | - | - | - |
| 1777469958 | 24.44° C | 40% | 0 hPa | 0 mm | - | - | - |
| 1777469598 | 23.89° C | 41% | 0 hPa | 0 mm | - | - | - |
| 1777469238 | 22.78° C | 43% | 0 hPa | 0 mm | - | - | - |
| 1777468878 | 22.22° C | 46% | 0 hPa | 0 mm | - | - | - |
| 1777468518 | 21.67° C | 47% | 0 hPa | 0 mm | - | - | - |
| 1777468158 | 21.67° C | 46% | 0 hPa | 0 mm | - | - | - |
| 1777467798 | 21.11° C | 51% | 0 hPa | 0 mm | - | - | - |
| 1777467438 | 21.11° C | 52% | 0 hPa | 0 mm | - | - | - |
| 1777467078 | 21.11° C | 53% | 0 hPa | 0 mm | - | - | - |
| 1777466718 | 21.11° C | 53% | 0 hPa | 0 mm | - | - | - |
| 1777466358 | 20.56° C | 54% | 0 hPa | 0 mm | - | - | - |
| 1777465998 | 20.56° C | 55% | 0 hPa | 0 mm | - | - | - |
| 1777465638 | 20.56° C | 56% | 0 hPa | 0 mm | - | - | - |
| 1777465278 | 20.56° C | 57% | 0 hPa | 0 mm | - | - | - |
| 1777464918 | 20.56° C | 57% | 0 hPa | 0 mm | - | - | - |
| 1777464558 | 20.56° C | 57% | 0 hPa | 0 mm | - | - | - |
| 1777464198 | 20.56° C | 58% | 0 hPa | 0 mm | - | - | - |
| 1777463838 | 20.56° C | 57% | 0 hPa | 0 mm | - | - | - |
* Rain latest hour (hover to see other rain measurements)
** Current wind speed in m/s (hover to see current wind gust speed)